Location: Laterina
(43.5167°N, 11.7167°E)
Time: 16:42:48
(UTC+00:00)

DMSP B5D2-2 - Pass Details

Date: 24 September 2020
Orbit: 790 x 806 km, 98.3° (Epoch: 25 October)

Event Time Altitude Azimuth Distance (km) Brightness Sun altitude
Rises 19:16:18 0° 11° (NNE) 3,332 7.5 -23.8°
Reaches altitude 10° 19:18:39 10° 10° (N) 2,396 6.7 -24.2°
Maximum altitude 19:23:57 76° 286° (WNW) 833 4.2 -25.1°
Drops below altitude 10° 19:29:12 10° 201° (SSW) 2,374 6.5 -25.9°
Sets 19:31:31 0° 200° (SSW) 3,298 7.2 -26.3°
